When you browse on this site, cookies collect data to enhance your experience and personalize the content and advertising you see.
Visit our Privacy Policy to learn more. By continuing to use the site, you agree to this use of cookies and data.
  • In United Kingdom
  • List of Countries
  • For 7 days
  • Water Temperature
  • Satellite Maps
  • Weather Map
  • Weather Widgets
  • user-avatar
    Login

    Hourly Weather Pechenyuhy

    Today, 25 June, Tuesday

    Time Temperature Precipitation Wind Pressure Humidity
    00:00 +17°C° 0 mm 3 mps 751 mmHg 86%
    01:00 +16°C° 0 mm 3 mps 752 mmHg 85%
    02:00 +16°C° 0 mm 3 mps 752 mmHg 86%
    03:00 +16°C° 0 mm 3 mps 752 mmHg 86%
    04:00 +16°C° 0 mm 3 mps 752 mmHg 86%
    05:00 +16°C° 0 mm 3 mps 752 mmHg 86%
    06:00 +17°C° 0 mm 3 mps 753 mmHg 81%
    07:00 +19°C° 0 mm 3 mps 753 mmHg 76%
    08:00 +21°C° 0 mm 4 mps 753 mmHg 70%
    09:00 +22°C° 0 mm 4 mps 754 mmHg 65%
    10:00 +23°C° 0 mm 4 mps 754 mmHg 60%
    11:00 +25°C° 0 mm 4 mps 754 mmHg 55%
    12:00 +25°C° 0 mm 4 mps 754 mmHg 54%
    13:00 +26°C° 0 mm 4 mps 754 mmHg 53%
    14:00 +26°C° 0 mm 4 mps 754 mmHg 53%
    15:00 +26°C° 0 mm 4 mps 754 mmHg 56%
    16:00 +25°C° 0 mm 3 mps 754 mmHg 60%
    17:00 +25°C° 0 mm 3 mps 753 mmHg 64%
    18:00 +22°C° 0 mm 3 mps 754 mmHg 68%
    19:00 +21°C° 0 mm 2 mps 754 mmHg 73%
    20:00 +19°C° 0 mm 2 mps 754 mmHg 78%
    21:00 +18°C° 0 mm 2 mps 754 mmHg 80%
    22:00 +18°C° 0 mm 1 mps 754 mmHg 82%
    23:00 +16°C° 0 mm 1 mps 754 mmHg 83%

    Tomorrow, 26 June, Wednesday

    Time Temperature Precipitation Wind Pressure Humidity
    00:00 +16°C° 0 mm 1 mps 754 mmHg 84%
    01:00 +14°C° 0 mm 0 mps 754 mmHg 85%
    02:00 +14°C° 0 mm 0 mps 755 mmHg 86%
    03:00 +15°C° 0 mm 0 mps 754 mmHg 85%
    04:00 +15°C° 0 mm 0 mps 754 mmHg 85%
    05:00 +18°C° 0 mm 1 mps 754 mmHg 84%
    06:00 +19°C° 0 mm 1 mps 754 mmHg 80%
    07:00 +21°C° 0 mm 1 mps 754 mmHg 75%
    08:00 +22°C° 0 mm 1 mps 754 mmHg 70%
    09:00 +23°C° 0 mm 2 mps 754 mmHg 66%
    10:00 +24°C° 0 mm 2 mps 753 mmHg 61%
    11:00 +25°C° 0 mm 2 mps 753 mmHg 57%
    12:00 +26°C° 0 mm 2 mps 753 mmHg 55%
    13:00 +26°C° 0 mm 3 mps 752 mmHg 54%
    14:00 +26°C° 0 mm 3 mps 752 mmHg 53%
    15:00 +26°C° 0 mm 3 mps 751 mmHg 55%
    16:00 +26°C° 0 mm 3 mps 751 mmHg 58%
    17:00 +25°C° 0 mm 2 mps 750 mmHg 61%
    18:00 +24°C° 0 mm 2 mps 749 mmHg 65%
    19:00 +21°C° 0 mm 2 mps 749 mmHg 70%
    20:00 +21°C° 0 mm 1 mps 749 mmHg 75%
    21:00 +19°C° 0 mm 2 mps 748 mmHg 76%
    22:00 +19°C° 0 mm 3 mps 748 mmHg 77%
    23:00 +19°C° 0 mm 3 mps 747 mmHg 78%

    Day after tomorrow, 27 June, Thursday

    Time Temperature Precipitation Wind Pressure Humidity
    00:00 +19°C° 0 mm 4 mps 747 mmHg 80%
    01:00 +19°C° 0 mm 4 mps 746 mmHg 82%
    02:00 +19°C° 0 mm 5 mps 745 mmHg 83%
    03:00 +19°C° 0 mm 5 mps 744 mmHg 84%
    04:00 +19°C° 0 mm 5 mps 743 mmHg 84%
    05:00 +19°C° 0 mm 6 mps 743 mmHg 84%
    06:00 +20°C° 0.1 mm 6 mps 742 mmHg 82%
    07:00 +21°C° 0.1 mm 7 mps 741 mmHg 80%
    08:00 +22°C° 0.1 mm 7 mps 741 mmHg 78%
    09:00 +22°C° 0.8 mm 7 mps 740 mmHg 81%
    10:00 +22°C° 0.8 mm 7 mps 739 mmHg 83%
    11:00 +22°C° 0.8 mm 7 mps 739 mmHg 85%
    12:00 +23°C° 0.3 mm 7 mps 738 mmHg 83%
    13:00 +23°C° 0.3 mm 7 mps 737 mmHg 82%
    14:00 +24°C° 0.3 mm 7 mps 737 mmHg 81%
    15:00 +24°C° 2.1 mm 7 mps 736 mmHg 82%
    16:00 +24°C° 2.1 mm 7 mps 735 mmHg 83%
    17:00 +24°C° 2.1 mm 7 mps 734 mmHg 84%
    18:00 +23°C° 0.3 mm 7 mps 734 mmHg 86%
    19:00 +21°C° 0.3 mm 6 mps 734 mmHg 88%
    20:00 +20°C° 0.3 mm 6 mps 734 mmHg 90%
    21:00 +17°C° 0 mm 6 mps 734 mmHg 90%
    22:00 +16°C° 0 mm 6 mps 734 mmHg 89%
    23:00 +14°C° 0 mm 6 mps 734 mmHg 89%

    28 June, Friday

    Time Temperature Precipitation Wind Pressure Humidity
    00:00 +14°C° 0 mm 6 mps 734 mmHg 89%
    01:00 +13°C° 0 mm 6 mps 734 mmHg 90%
    02:00 +11°C° 0 mm 6 mps 734 mmHg 90%
    03:00 +11°C° 0 mm 6 mps 734 mmHg 90%
    04:00 +11°C° 0 mm 6 mps 734 mmHg 89%
    05:00 +11°C° 0 mm 6 mps 734 mmHg 89%
    06:00 +11°C° 0 mm 7 mps 734 mmHg 86%
    07:00 +12°C° 0 mm 7 mps 734 mmHg 83%
    08:00 +12°C° 0 mm 8 mps 734 mmHg 81%
    09:00 +12°C° 0.1 mm 8 mps 734 mmHg 83%
    10:00 +12°C° 0.1 mm 8 mps 734 mmHg 85%
    11:00 +12°C° 0.1 mm 8 mps 734 mmHg 87%
    12:00 +12°C° 0.3 mm 8 mps 734 mmHg 88%
    13:00 +12°C° 0.3 mm 8 mps 734 mmHg 90%
    14:00 +12°C° 0.3 mm 7 mps 734 mmHg 92%
    15:00 +12°C° 0.2 mm 7 mps 734 mmHg 90%
    16:00 +14°C° 0.2 mm 7 mps 734 mmHg 88%
    17:00 +14°C° 0.2 mm 7 mps 734 mmHg 86%
    18:00 +14°C° 0.1 mm 7 mps 734 mmHg 88%
    19:00 +13°C° 0.1 mm 6 mps 735 mmHg 89%
    20:00 +13°C° 0.1 mm 6 mps 735 mmHg 90%
    21:00 +11°C° 0 mm 6 mps 735 mmHg 91%
    22:00 +11°C° 0 mm 6 mps 735 mmHg 91%
    23:00 +11°C° 0 mm 6 mps 735 mmHg 91%

    29 June, Saturday

    Time Temperature Precipitation Wind Pressure Humidity
    00:00 +10°C° 0 mm 6 mps 735 mmHg 91%
    01:00 +10°C° 0 mm 6 mps 736 mmHg 91%
    02:00 +9°C° 0 mm 6 mps 736 mmHg 91%
    03:00 +9°C° 0 mm 7 mps 736 mmHg 89%
    04:00 +9°C° 0 mm 7 mps 736 mmHg 88%
    05:00 +8°C° 0 mm 7 mps 737 mmHg 86%
    06:00 +9°C° 0 mm 7 mps 737 mmHg 82%
    07:00 +10°C° 0 mm 7 mps 737 mmHg 78%
    08:00 +10°C° 0 mm 8 mps 738 mmHg 73%
    09:00 +11°C° 0 mm 8 mps 738 mmHg 70%
    10:00 +12°C° 0 mm 8 mps 738 mmHg 67%
    11:00 +12°C° 0 mm 7 mps 739 mmHg 64%
    12:00 +13°C° 0 mm 8 mps 739 mmHg 62%
    13:00 +15°C° 0 mm 8 mps 739 mmHg 60%
    14:00 +16°C° 0 mm 8 mps 739 mmHg 58%
    15:00 +15°C° 0.1 mm 7 mps 739 mmHg 60%
    16:00 +15°C° 0.1 mm 6 mps 739 mmHg 61%
    17:00 +15°C° 0.1 mm 6 mps 740 mmHg 63%
    18:00 +14°C° 0.1 mm 5 mps 740 mmHg 69%
    19:00 +12°C° 0.1 mm 4 mps 740 mmHg 74%
    20:00 +11°C° 0.1 mm 3 mps 740 mmHg 80%
    21:00 +10°C° 0 mm 3 mps 740 mmHg 81%
    22:00 +9°C° 0 mm 3 mps 740 mmHg 82%
    23:00 +8°C° 0 mm 3 mps 740 mmHg 84%

    30 June, Sunday

    Time Temperature Precipitation Wind Pressure Humidity
    00:00 +8°C° 0 mm 3 mps 741 mmHg 85%
    01:00 +8°C° 0 mm 3 mps 741 mmHg 85%
    02:00 +7°C° 0 mm 3 mps 741 mmHg 86%
    03:00 +7°C° 0 mm 3 mps 741 mmHg 86%
    04:00 +8°C° 0 mm 3 mps 741 mmHg 86%
    05:00 +8°C° 0 mm 3 mps 741 mmHg 85%
    06:00 +10°C° 0 mm 3 mps 741 mmHg 78%
    07:00 +13°C° 0 mm 3 mps 742 mmHg 71%
    08:00 +16°C° 0 mm 3 mps 742 mmHg 63%
    09:00 +17°C° 0 mm 3 mps 742 mmHg 59%
    10:00 +18°C° 0 mm 3 mps 742 mmHg 56%
    11:00 +19°C° 0 mm 4 mps 742 mmHg 52%
    12:00 +19°C° 0.1 mm 3 mps 742 mmHg 58%
    13:00 +18°C° 0.1 mm 3 mps 742 mmHg 65%
    14:00 +17°C° 0.1 mm 3 mps 742 mmHg 71%
    15:00 +18°C° 0.5 mm 3 mps 742 mmHg 73%
    16:00 +18°C° 0.5 mm 3 mps 742 mmHg 74%
    17:00 +18°C° 0.5 mm 4 mps 742 mmHg 76%
    18:00 +17°C° 0.1 mm 3 mps 742 mmHg 81%
    19:00 +16°C° 0.1 mm 3 mps 742 mmHg 86%
    20:00 +15°C° 0.1 mm 2 mps 743 mmHg 90%
    21:00 +14°C° 0 mm 2 mps 743 mmHg 91%
    22:00 +13°C° 0 mm 2 mps 743 mmHg 91%
    23:00 +13°C° 0 mm 2 mps 743 mmHg 91%
    Show more